Community: Exchange advice in the forums and read running commentary Resources: Personal running log, calculators, links and other tools for runners News: Running news from around the world Training: Articles and advice about fitness, race training and injury prevention Races/Results: Find upcoming races and past results Home: The Cool Running homepage

Cool Running homepage
events
Massachusetts Event Spotlights
Find Events
Find Results
Race Directors

Race directors: Promote your event
Discover how Cool Running can help you.

Add to our calendar
Submit your race to our event calendar.

Submit race results
Add race results to our results section.

Instant Ads
Pay-Per-Click Ads on Active.com  
   
> Printer-friendly page

Jeff Coombs Memorial Race

Abington, MA, September 9, 2007

[Age Group Results ]

Order of Finish

Results courtesy of the Colonial Road Runners


JEFF COOMBS MEMORIAL ROAD RACE 3.1 M
ORDER OF FINISH Sept. 9, 2007
Place BIB TIME FIRST LAST M/F CATEG. TOWN OTHER Min/Mi
1 384 16:55 Jason Cakouros M Over Milton 05:27
2 28 17:13 Bobby Bligh M Over Wakefield 05:33
3 258 17:45 William Taft M Over 05:43
4 1008 18:34 Joe Haidul M 20 34 Hanson 05:59
5 329 18:44 Chris Forti M 20 34 Everett 06:02
6 325 18:48 Alex Snyder M 15 19 Abington 06:04
7 333 18:50 Jeffrey Carroll M 15 19 Abington 06:04
8 337 18:54 Phil Parks M 35 49 Abington 06:06
9 181 18:56 Jeffrey Moreau M 20 34 06:07
10 1038 19:04 Ted Coyle M 35 49 Scituate  06:09
11 3 19:10 George Itz M 50 64 Weymouth 06:11
12 341 19:15 Christopher Cutter M 35 49 E. Bridgewater 06:12
13 1023 19:16 J.J. Kelleher III M 20 34 Rockland 06:13
14 21 19:29 Joe Berry M 35 49 Abington 06:17
15 12 19:34 Joel Amblini M 35 49 Braintree 06:19
16 167 19:43 John McKeon M 15 19 Abington 06:22
17 27 19:47 Marc Blandin M 20 34 06:23
18 370 20:06 Patrick Brown M 20 34 Marshfield 06:29
19 328 20:24 Meaghan Shaw F Over Reading 06:35
20 338 20:29 Scott Newkirk M 50 64 N. Scituate 06:37
21 282 20:30 Brendan Whalen M 15 19 Abington 06:37
22 1028 20:34 Chris Diehl M 35 49 Dedham 06:38
23 352 20:41 Scott White M 35 49 Attleboro 06:40
24 178 20:43 Marilou Moore F Over Weymouth 06:41
25 290 20:54 Tom Yellope M 50 64 Brockton 06:44
26 180 20:57 Victor Moran-Cuniff M 1 14 06:46
27 246 20:59 Kevin Sheehan M 15 19 Rockland 06:46
28 150 21:04 Brandon Marini M 15 19 Abington 06:48
29 1051 21:06 Duane Levangie M 35 49 Whitman 06:48
30 110 21:10 Patrick Grzybinski Sr. M 35 49 Holbrook 06:50
31 45 21:11 Thomas Chambers M 15 19 06:50
32 253 21:15 Kevin Stanton M 15 19 Abington 06:51
33 118 21:30 Steven Houde  M 35 49 Medway 06:56
34 1065 21:34 Pamela Kustas F Over Cambridge 06:58
35 1012 21:44 Kylie Mansfield F 20 34 Norwell 07:01
36 249 21:46 Jillian Smith F 15 19 Abington 07:01
37 398 21:47 Robert Creed M 15 19 Whitman 07:02
38 205 21:49 Michael Polito M 15 19 Abington 07:02
39 225 21:51 John Robinson M 50 64 07:03
40 112 21:52 John Hagerty M 15 19 Abington 07:03
41 231 21:54 David Rossman M 35 49 Rockland 07:04
42 237 21:55 Isaiah Savage M 1 14 07:04
43 196 21:57 Dick Nickley M 35 49 Abington 07:05
44 44 22:01 Edward Cederholm M 50 64 Weymouth 07:06
45 357 22:01 Mark Foley M 35 49 Abington 07:06
46 133 22:03 Brian Kurowski M 15 19 Abington 07:07
47 92 22:13 Emily Flaherty F 35 49 Abington 07:10
48 129 22:24 Adam Kempner M 35 49 Stoughton 07:14
49 46 22:26 Joe Ciavattone M 35 49 Milton 07:14
50 179 22:32 Bill Moore M 35 49 Weymouth 07:16
51 120 22:34 Brian Hurley M 50 64 Norwell 07:17
52 1043 22:38 Cheryl Crawford F 35 49 Kingston 07:18
53 322 22:44 Ryan Fitzgerald M 15 19 Abington 07:20
54 264 22:45 Robert Trumbull M 35 49 Whitman 07:20
55 331 22:49 Michael Simon M 20 34 Mashpee 07:22
56 1055 22:50 Paul Lacorazza M 35 49 Plympton 07:22
57 1077 22:53 Robbie Berquist M 15 19 Norwell 07:23
58 390 22:54 Kyle Larrow M 15 19 Carver 07:23
59 369 22:54 Robert Heilbrun M 15 19 Newton 07:23
60 239 22:58 David Savage M 35 49 07:24
61 208 23:01 James Pozerski M 35 49 07:26
62 183 23:02 Kyle Mota M 15 19 Hanson 07:26
63 304 23:03 Eric Lee M 15 19 Abington 07:26
64 62 23:07 Chris Cyr M 35 49 E. Bridgewater 07:27
65 385 23:09 Matt McDermod M 20 34 Weymouth 07:28
66 168 23:09 Billy McLeod M 50 64 Quincy 07:28
67 1037 23:26 Dennis Hoffman M 50 64 Abington 07:34
68 391 23:31 Dan Bardon M 35 49 Halifax 07:35
69 48 23:34 Patrick Clougherty M 20 34 Rockland 07:36
70 152 23:35 Cheryl Marquadt F 35 49 07:36
71 323 23:43 Charlie Morgan M 35 49 Brockton 07:39
72 364 23:46 Beverly Coronis F 50 64 Marshfield 07:40
73 1044 23:48 Gary Crawford M 35 49 Kingston 07:41
74 297 23:52 Edward Chavez M 35 49 Holbrook 07:42
75 88 23:53 Patricia Everett F 50 64 W. Bridgewater 07:42
76 294 23:55 Ashley Betts F 1 14 S, Weymouth 07:43
77 30 23:56 Patrick Bonner M 35 49 Abington 07:43
78 184 23:58 Chad Mota M 15 19 Hanson 07:44
79 351 24:01 Jerry Cuellar M 35 49 Middleboro 07:45
80 1086 24:01 Paul Hurley M 50 64 Norwell 07:45
81 106 24:07 Nick Gosselin M 35 49 Abington 07:47
82 2 24:15 Douglas Coombs M 35 49 07:49
83 98 24:17 Olivia Gaeta F 1 14 07:50
84 203 24:18 Melissa Pilicy F 20 34 Waltham 07:50
85 17 24:21 Ann Bernazzani F 35 49 Abington 07:51
86 14 24:22 Mark Arsenault M 35 49 Weymouth 07:52
87 172 24:26 Kyle Merrigan M 15 19 Holbrook 07:53
88 157 24:27 Marie Matulonis F 35 49 Abington 07:53
89 32 24:28 Andy Burbine M 35 49 Abington 07:54
90 361 24:31 Chris McDonnell M 15 19 Abington 07:54
91 389 24:37 Eugene Gallagher M 50 64 Norwell 07:56
92 1009 24:42 Jeanne Sullivan F 35 49 Brockton 07:58
93 332 24:44 Jared O'Brien M 15 19 Abington 07:59
94 131 24:46 Timothy Killian M 15 19 Abington 07:59
95 4 24:46 Charles Coombs M 50 64 08:00
96 1027 24:49 Chris Hurley M 15 19 Kingston 08:00
97 234 24:50 David Saccone M 50 64 Whitman 08:01
98 1004 24:52 Meghan Woods F 20 34 Hanover 08:01
99 386 24:56 Patrick Joyce M 35 49 Weymouth 08:03
100 1015 24:58 Bob Fitzgerald M 50 64 S. Weymouth 08:03
101 362 25:06 Bonnie King F 35 49 E. Bridgewater 08:06
102 217 25:07 Bob Rantuccio M 50 64 N. Quincy 08:06
103 149 25:17 Lou Marini M 35 49 Abington 08:09
104 259 25:20 Dewayne Taylor M 35 49 Hanover 08:10
105 1067 25:21 Mike Mulligan M 15 19 Abington 08:11
106 145 25:23 Shane Majenski M 1 14 Hanson 08:11
107 1021 25:25 Joe Haidul Sr M 50 64 Hanover 08:12
108 171 25:28 Bill Merrigan M 35 49 Holbrook 08:13
109 73 25:30 Kate Dodge F 15 19 Whitman 08:13
110 141 25:30 Eric Magnussen M 15 19 08:14
111 64 25:30 Mark D'angelo M 20 34 08:14
112 61 25:31 Daniel Cusick M 15 19 Abington 08:14
113 103 25:31 Elizabeth Giroux F 35 49 08:14
114 90 25:32 James Fallon M 35 49 08:14
115 188 25:37 Janice Mullaney F 35 49 08:16
116 353 25:41 Patricia L'Italien F 65+ Hanover 08:17
117 134 25:41 Steven Lanzillotta M 50 64 Hanover 08:17
118 128 25:41 Irene Kelleher F 20 34 Rockland 08:17
119 176 25:43 Paul Mollica M 50 64 Abington 08:18
120 284 25:46 John Whelan M 1 14 Abington 08:19
121 1078 25:53 Joseph Lawrence M 15 19 Abington 08:21
122 37 25:54 Jesse Carmen F 15 19 Sharon 08:21
123 346 25:56 Jason Morgan M 35 49 Hingham 08:22
124 38 26:07 Michael Carmen M 35 49 Sharon 08:25
125 247 26:10 Sue Simmons F 50 64 Rockland 08:26
126 263 26:11 Melissa Tempesta F 20 34 08:27
127 1059 26:13 Eileen Casey F 50 64 Norwell 08:27
128 340 26:15 Sam Houde M 1 14 Medway 08:28
129 233 26:15 James Ryan M 20 34 08:28
130 177 26:16 Liz Mollica F 15 19 Abington 08:28
131 374 26:20 Georgia Critsley F 35 49 Arlington 08:30
132 1069 26:23 Larry Peruzzi M 35 49 Abington 08:31
133 336 26:24 Jeff Parks M 1 14 Abington 08:31
134 343 26:29 Dan Gorman M 50 64 Plymouth 08:33
135 228 26:29 Michelle Rocheleau F 35 49 Abington 08:33
136 119 26:31 Dave Hurley M 35 49 Raynham 08:33
137 41 26:32 Patrick Carroll M 35 49 Brockton 08:34
138 309 26:33 Joan Bryant F 35 49 Abington 08:34
139 393 26:37 Elisabeth O'Brien F 35 49 Kingston 08:35
140 107 26:39 Patrick Grzybinski M 1 14 Holbrook 08:36
141 292 26:39 Stephen Wing M 35 49 Bridgewater 08:36
142 238 26:40 Chelsea Savage F 1 14 08:36
143 137 26:43 Steve Leonard M 1 14 Abington 08:37
144 108 26:45 Thomas Grzybinski M 1 14 Holbrook 08:38
145 43 26:50 Dino Cauteruccio M 15 19 Holbrook 08:39
146 295 26:50 Paul Danahy M 35 49 Abington 08:39
147 194 26:52 Robert Murphy M 50 64 08:40
148 207 26:55 Traci Pozerski F 35 49 08:41
149 319 26:56 Mike Lozan M 65+ Weymouth 08:41
150 123 27:01 Matt Joyce M 20 34 Weymouth 08:43
151 1001 27:05 David Monzo M 1 14 Abington 08:44
152 138 27:08 Jimmy Leonard M 15 19 Abington 08:45
153 400 27:09 Bryan Macaluso M 1 14 Abington 08:46
154 350 27:12 Emily Lyons F 15 19 Abington 08:46
155 1005 27:12 Casey Tate F 20 34 Hanover 08:47
156 367 27:13 Karen Flannery F 35 49 N. Attleboro 08:47
157 1064 27:13 Debra Gauley F 35 49 Plympton 08:47
158 1063 27:15 Keith Gauley M 35 49 Plympton 08:47
159 377 27:15 Kara Grosser F 20 34 Brookline 08:47
160 330 27:18 Kelly Hawk F 35 49 Hanson 08:48
161 316 27:19 Kimberly Colletti F 35 49 Hanson 08:49
162 277 27:24 Kathleen Ward F 20 34 Hanson 08:50
163 227 27:30 Lisa Roche F 35 49 Norwell 08:52
164 355 27:36 Mark Henry M 20 34 Braintree 08:54
165 339 27:37 Jennifer Sampson F 20 34 Pembroke 08:55
166 1036 27:38 John O'Brien M 35 49 Abington 08:55
167 344 27:41 Lynae Fader F 35 49 Hanson 08:56
168 345 27:42 John Connelly M 35 49 Hanson 08:56
169 320 27:43 Caitlin Fitzgerald F 15 19 Abington 08:56
170 241 27:44 Patricia Scott F 35 49 Rockland 08:57
171 79 27:45 Bryan Donovan M 15 19 Abington 08:57
172 185 27:45 Moses Mota M 35 49 Hanson 08:57
173 104 27:45 Idalina Gomes F 35 49 Weymouth 08:57
174 376 27:48 Andy Grosser M 35 49 Somerville 08:58
175 334 27:49 Robert Carroll M 15 19 Abington 08:58
176 13 27:49 Brad Arena M 15 19 Abington 08:58
177 298 27:50 Cheryl Mooney F 35 49 Whitman 08:59
178 383 27:54 Cheryl Casper F 35 49 Abington 09:00
179 182 27:59 Linda Morris F 35 49 Braintree 09:02
180 1035 28:00 Robert Hufnagel M 35 49 Weymouth 09:02
181 186 28:01 Chris Moynihan M 35 49 Raynham 09:02
182 11 28:06 Ana Amaral F 35 49 09:04
183 51 28:11 Scott Collins M 35 49 09:05
184 283 28:12 Bob Wheeler M 50 64 09:06
185 144 28:13 Adam Majenski M 1 14 Hanson 09:06
186 76 28:17 Sean Donovan M 1 14 Abington 09:08
187 160 28:21 Jewel McAuliffe F 1 14 09:09
188 34 28:22 Marie Burke F 50 64 Weymouth 09:09
189 71 28:27 John Dodge M 35 49 Whitman 09:11
190 1042 28:27 Matt Folan M 15 19 Abington 09:11
191 1066 28:28 Nick Hoitt M 15 19 Abington 09:11
192 368 28:28 Christopher Flannery M 1 14 N. Attleboro 09:11
193 366 28:29 David Flannery M 35 49 N. Attleboro 09:11
194 147 28:30 Gabrielle Majenski F 1 14 Hanson 09:12
195 146 28:31 David Majenski M 35 49 Hanson 09:12
196 365 28:34 Charles Coronis M 50 64 Marshfield 09:13
197 94 28:37 Kristine Flynn F 35 49 Abington 09:14
198 164 28:40 Sean McKenna M 50 64 09:15
199 310 28:43 Caroline Sheehy F 35 49 Cohasset 09:16
200 1013 28:46 Steven Mansfield M 50 64 Norwell 09:17
201 265 28:53 Robert Trumbull M 15 19 Whitman 09:19
202 1025 28:55 Robert Flynn M 35 49 Mansfield 09:20
203 1080 28:58 Ed Shipman M 35 49 Wellesley 09:21
204 24 29:03 Cathy Blaisdell F 35 49 Hanover 09:22
205 219 29:04 Debbie Reedy F 35 49 Holbrook 09:22
206 289 29:04 Susan Yellope F 50 64 Brockton 09:23
207 161 29:06 Megan McClintock F 15 19 Abington 09:23
208 1033 29:06 Alex Greenough M 15 19 Abington 09:23
209 347 29:07 Andrew  Morgan M 15 19 Hingham 09:24
210 1061 29:14 Benjamin Gauley M 15 19 Plympton 09:26
211 202 29:18 Pamela Onges F 35 49 N. Easton 09:27
212 35 29:18 Brian Burke M 35 49 09:27
213 1019 29:19 Deepak Ravindranath M 35 49 Weymouth 09:27
214 1018 29:19 Karen Joseph F 35 49 Holbrook 09:28
215 70 29:21 Matt Diver M 1 14 Abington 09:28
216 68 29:22 Ronnie Diver M 35 49 Abington 09:28
217 1031 29:28 Angela Park F 35 49 Rockland 09:30
218 136 29:32 Susan Lawlor F 35 49 09:32
219 101 29:35 Edward Gillis M 50 64 Abington 09:32
220 96 29:37 Samuel Friedman M 1 14 Abington 09:33
221 97 29:38 Richard Friedman M 35 49 Abington 09:33
222 1026 29:39 Beatrice D'Angelo F 50 64 Hull 09:34
223 1053 29:39 Andrew  Larrow M 35 49 Carver 09:34
224 248 29:40 Steven Siroonian M 35 49 Abington 09:34
225 296 29:40 Ellen Danahy F 35 49 Abington 09:34
226 243 29:43 Paul Segalla M 35 49 09:35
227 1046 29:46 Maggie Madden F 15 19 Abington 09:36
228 117 29:48 Kerri Higgins F 20 34 Hanover 09:37
229 1073 29:48 Ed Kelley M 50 64 Pembroke 09:37
230 53 29:52 Mark Comeau M 35 49 Halifax 09:38
231 1084 29:54 Steven Manning M 1 14 Abington 09:39
232 1074 29:58 Denise Fisher F 35 49 Abington 09:40
233 222 29:58 Alicia Reid F 1 14 Abington 09:40
234 299 29:59 Roberta Mannetta F 35 49 Whitman 09:40
235 187 29:59 Michael Mullally M 35 49 S. Weymouth 09:40
236 198 30:04 Erin O'Brien F 15 19 Abington 09:42
237 303 30:04 Lynore Del Sette F 35 49 Brockton 09:42
238 139 30:06 Greg Leonard M 20 34 Whitman 09:43
239 387 30:06 Sean O'Brien M 20 34 Abington 09:43
240 1040 30:07 Jeff Monroe M 15 19 Plympton 09:43
241 1048 30:07 Ryan Russell M 15 19 Marshfield 09:43
242 1034 30:08 John Sessions M 15 19 Braintree 09:43
243 1047 30:09 Daniel Bent M 15 19 Marshfield 09:43
244 1041 30:09 Derek Foy M 15 19 E. Bridgewater 09:44
245 381 30:10 John Llewellyn M 35 49 Rockland 09:44
246 382 30:11 Suzie Llewellyn F 35 49 Rockland 09:44
247 99 30:11 Christine Galvin F 35 49 S. Weymouth 09:44
248 1002 30:12 Kate Kelman F 20 34 Brighton 09:45
249 1016 30:12 Ryan Wallace M 15 19 Weymouth 09:45
250 1017 30:13 Adam Cherubias M 15 19 Weymouth 09:45
251 315 30:16 David Cooney M 20 34 Duxbury 09:46
252 291 30:20 Matthew Zampi M 1 14 Walpole 09:47
253 308 30:20 Stephen Martell M 35 49 Halifax 09:47
254 5 30:23 David Brown M 35 49 Boston 09:48
255 348 30:24 Meaghan Hurley F 15 19 Abington 09:48
256 83 30:25 Tricia Doughty F 35 49 E. Falmouth 09:49
257 74 30:25 Sarah Dodge F 15 19 Whitman 09:49
258 276 30:26 Amanda Walsh F 20 34 Rockland 09:49
259 56 30:26 Jake Concannon M 1 14 Abington 09:49
260 22 30:31 Joann Bishop F 35 49 Duxbury 09:51
261 1039 30:33 Jamie Rice F 20 34 Weymouth 09:51
262 158 30:34 Amy Mazzola F 20 34 N. Quincy 09:52
263 59 30:35 Linda Creutz F 35 49 09:52
264 267 30:36 Veronica Trumbull F 35 49 Whitman 09:52
265 1079 30:37 Griffin Keeler M 15 19 Pembroke 09:53
266 80 30:39 Paul Donovan M 50 64 Abington 09:53
267 213 30:39 Tom Rajotte M 35 49 Abington 09:53
268 1003 30:39 Katie Woods F 20 34 Hanover 09:53
269 121 30:41 Janet Johnson F 35 49 Abington 09:54
270 274 30:45 Susan Walsh F 50 64 Marshfield 09:55
271 93 30:46 Patrick Faherty M 20 34 Abington 09:55
272 175 30:47 Nicole Mollica F 15 19 Abington 09:56
273 1052 30:48 Gerri Donovan F 35 49 Milton 09:56
274 170 30:49 Thomas Melanson M 50 64 Braintree 09:57
275 1022 30:54 George Kustka M 35 49 Abington 09:58
276 78 30:55 Richard Donovan M 35 49 Abington 09:58
277 271 30:59 Maria Varonko F 15 19 Duxbury 10:00
278 197 31:00 Timothy Nuttall M 1 14 Abington 10:00
279 204 31:01 Ryan Plunkett M 1 14 Abington 10:00
280 1075 31:04 Jay Sideropoulos M 50 64 Abington 10:01
281 57 31:09 Evan Cordeiro M 20 34 Abington 10:03
282 36 31:11 Donna Campbell F 35 49 Abington 10:04
283 1082 31:16 Joseph Travers M 15 19 Medford 10:05
284 354 31:31 Jocelyn Keegan F 35 49 Hanover 10:10
285 321 31:42 Daniel Fitzgerald M 15 19 Abington 10:14
286 314 31:44 Jill Cooney F 20 34 Duxbury 10:14
287 174 31:46 Sally Miller F 35 49 Hanover 10:15
288 302 31:47 Joe Dunn M 20 34 Brighton 10:15
289 124 31:48 Tom Joyce  M 50 64 Weymouth 10:15
290 301 31:48 Kaitlin Hagerty F 20 34 Abington 10:16
291 363 31:49 Michelle Dutcher F 35 49 E. Bridgewater 10:16
292 100 31:53 Michael Gates M 35 49 10:17
293 39 31:55 Donna Carr F 50 64 10:18
294 67 31:55 Domenic DeSantes M 1 14 Abington 10:18
295 65 31:57 Larry DelGreco M 65+ Whitman 10:18
296 132 31:58 Betsy Knapp F 50 64 N. Weymouth 10:19
297 373 31:59 Christopher Toomey M 1 14 Abington 10:19
298 275 32:00 Laura Walsh F 35 49 Rockland 10:19
299 254 32:02 Josie Stewart F 35 49 Hanson 10:20
300 279 32:08 Matthew Weatherbee M 1 14 W. Bridgewater 10:22
301 278 32:09 Scott Weatherbee M 35 49 W. Bridgewater 10:22
302 245 32:27 Peter Shaughnessy M 50 64 Braintree 10:28
303 49 32:37 Julie Coen F 1 14 Kingston 10:31
304 50 32:37 Kevin Coen M 50 64 Kingston 10:31
305 305 32:59 Kristen Lee F 15 19 Abington 10:38
306 140 33:03 Lisa Lewis F 35 49 Abington 10:40
307 288 33:03 Paul Worcester M 50 64 Plymouth 10:40
308 60 33:17 Ellen Curtin F 35 49 Bridgewater 10:44
309 89 33:17 Paul Everett M 50 64 W. Bridgewater 10:44
310 156 33:18 Kaleigh Matulonis F 1 14 Abington 10:45
311 1024 33:19 Michael Matulonis M 35 49 Abington 10:45
312 159 33:22 Carole McAuliffe F 35 49 10:46
313 1062 33:23 Ryan Gauley M 15 19 Plympton 10:46
314 256 33:34 Kevin Summers M 20 34 Dedham 10:50
315 26 33:43 Tyler Blaisdell M 1 14 Hanover 10:53
316 25 33:44 Al Blaisdell M 35 49 Hanover 10:53
317 360 33:44 Erin Foley F 1 14 Abington 10:53
318 359 33:45 Molly Foley F 1 14 Abington 10:53
319 77 33:59 Nichole Donovan F 1 14 Abington 10:58
320 342 33:59 Rosemary Basson F 50 64 E. Freetown 10:58
321 214 33:59 Abigail Rajotte F 1 14 Abington 10:58
322 388 34:00 Erin O'Brien F 20 34 Abington 10:58
323 148 34:08 Jillian Marella F 1 14 Abington 11:01
324 285 34:13 Jeanne White F 35 49 Abington 11:02
325 66 34:13 Paula DeMinico F 35 49 Abington 11:02
326 165 34:17 Jillian McKeon F 1 14 Abington 11:04
327 166 34:18 Carol McKeon F 35 49 Abington 11:04
328 1050 34:20 Mary Berry F 35 49 Abington 11:04
329 109 34:28 Meghan Grzybinski  F 15 19 Holbrook 11:07
330 173 34:28 Emily Merrigan F 15 19 Holbrook 11:07
331 244 34:33 Susan Seoane F 35 49 Norwell 11:09
332 102 34:38 Diane Gillis F 50 64 Abington 11:10
333 1085 34:40 Stephen Finegan M 35 49 Rockland 11:11
334 151 34:41 Jessica Marini F 15 19 Abington 11:11
335 58 34:42 Erin Crane F 15 19 Abington 11:11
336 189 34:50 James Mullin M 35 49 Weymouth 11:14
337 75 34:51 Paul Doherty M 35 49 E. Bridgewater 11:14
338 261 34:53 Billy Taylor M 1 14 Hanover 11:15
339 260 34:53 Cathianne Taylor F 35 49 Hanover 11:15
340 143 34:54 Thomas Majenski M 65+ Abington 11:16
341 84 34:55 Laurene Ellis F 35 49 Brockton 11:16
342 318 34:56 Cristina Evans F 35 49 Pembroke 11:16
343 199 34:57 Michael O'Neil M 35 49 Abington 11:17
344 127 34:59 Mark Keefe M 35 49 Waltham 11:17
345 1032 35:00 Nancy Marshall F 35 49 Hanson 11:17
346 55 35:10 Dana Commesso F 20 34 11:20
347 1058 35:13 Austin Ryan M 1 14 Foxboro 11:21
348 1020 35:15 Amanda Hawkesworth F 1 14 Abington 11:22
349 300 35:21 Tom Burke M 65+ Abington 11:24
350 1046 35:26 Maggie Madden F 15 19 Abington 11:26
351 1045 35:26 Caitlin McNamara F 15 19 Abington 11:26
352 200 35:26 Colleen O'Neil F 1 14 Abington 11:26
353 163 35:27 Maura McKenna F 20 34 Holbrook 11:26
354 1014 35:28 Joseph Gentile M 1 14 Abington 11:26
355 372 35:33 Joe Russell M 35 49 Abington 11:28
356 190 35:33 Nicole Mullin F 20 34 Weymouth 11:28
357 192 35:34 Leanne Mullin F 15 19 Weymouth 11:28
358 240 35:45 Karen Scott F 35 49 Abington 11:32
359 191 35:46 Elizabeth Mullin F 15 19 Weymouth 11:32
360 392 35:48 Amy Federico F 20 34 Braintree 11:33
361 371 35:50 Patrick Donohue M 35 49 Abington 11:34
362 230 35:52 Helen Ross F 50 64 11:34
363 356 36:01 Kathie Henry F 50 64 Acton 11:37
364 250 36:02 Danielle Smith  F 20 34 Rockland 11:37
365 116 36:10 Allyson Hickey F 20 34 S. Boston 11:40
366 95 36:11 Ashley Fogarty F 1 14 E. Bridgewater 11:40
367 1072 36:11 William Walsh M 65+ Abington 11:40
368 358 36:11 Conor Foley M 1 14 Abington 11:40
369 324 36:22 Marianna Porcello F 1 14 Abington 11:44
370 221 36:23 Kimberly Reid F 1 14 Abington 11:44
371 16 36:24 Jeanne Berg F 35 49 Weymouth 11:44
372 1030 36:31 Brittany Ezzell F 15 19 Abington 11:47
373 113 36:42 Jackie Hamel F 15 19 Abington 11:50
374 395 36:43 Elizabeth Mahoney F 1 14 Hanson 11:51
375 220 36:44 Tammy Reid F 35 49 Abington 11:51
376 1056 36:57 Kelly Ryan F 35 49 Foxboro 11:55
377 313 37:03 Maria Burke F 35 49 Weymouth 11:57
378 312 37:09 Joseph Burke M 50 64 Weymouth 11:59
379 1057 37:09 Brandon Ryan M 1 14 Foxboro 11:59
380 1083 37:11 Maria Manning F 1 14 Abington 12:00
381 273 37:38 Eileen Walls F 50 64 Abington 12:08
382 31 37:39 Michael Brophy M 35 49 Abington 12:09
383 86 38:10 Adam Evans M 15 19 Randolph 12:19
384 293 38:13 Charles Grainger M 65+ E. Bridgewater 12:20
385 1049 38:42 Becky DeSieno F 15 19 Abington 12:29
386 326 38:42 Megan Tomlin F 15 19 Abington 12:29
387 327 38:43 Sabrina Thompson F 15 19 Abington 12:29
388 1054 38:43 Kelsea Cheney F 15 19 Abington 12:29
389 236 38:44 Samantha Sandonato F 15 19 Abington 12:30
390 378 38:44 Anna-Lisa Abbatangelo F 15 19 Abington 12:30
391 155 38:44 Lauren Marrella F 15 19 Abington 12:30
392 1060 38:45 Dana Greenlaw F 15 19 Abington 12:30
393 1076 38:45 Julie Lawrence F 15 19 Abington 12:30
394 1010 38:45 Rebecca Gagne F 15 19 Abington 12:30
395 114 39:08 Chris Hamel M 1 14 Abington 12:37
396 349 39:09 Kurt Carlson M 20 34 Abington 12:38
397 115 39:24 John Hamel M 35 49 12:43
398 105 39:55 Melissa Goodwin F 35 49 Whitman 12:53
399 87 40:39 Brian Evans M 1 14 Randolph 13:07
400 85 40:40 Jean Evans F 35 49 Randolph 13:07
401 209 40:41 Sheryl Pulliam F 35 49 Hingham 13:07
402 1068 41:06 Lisa Brennan F 35 49 Bridgewater 13:16
403 1087 41:32 Anne Marie McDonald F 65+ Weymouth 13:24
404 394 42:14 Gregory Mahoney M 1 14 Hanson 13:38
405 396 42:18 Debra Edgren F 35 49 Hanson 13:39
406 397 42:19 Ralph Blight M 35 49 Hanson 13:39
407 307 42:22 Kaela Ward F 1 14 Abington 13:40
408 306 42:26 Donna Martell M 20 34 Halifax 13:41
409 229 42:34 Margaret Rogers F 50 64 Abington 13:44
410 216 43:49 Colleen Rajotte F 1 14 Abington 14:08
411 212 43:49 Collette Rajotte F 35 49 Abington 14:08
412 242 45:43 Stephanie Scott F 15 19 Rockland 14:45
413 23 45:44 Rachael Bissonette F 15 19 Rockland 14:45
414 82 46:22 Marylou Dorman F 50 64 Weymouth 14:57
415 81 46:23 Charles Dorman M 50 64 Weymouth 14:58
416 135 46:32 Erin Latimer F 20 34 Abington 15:01
417 270 46:36 Mary Varonko F 50 64 Duxbury 15:02
418 1029 46:49 Kayla DiMarzio F 15 19 Abington 15:06
419 335 47:20 Kaitlyn Rielly F 1 14 Abington 15:16
420 272 47:21 Catherine Varonko F 15 19 Duxbury 15:16
421 399 51:54 Addison Learned M 65+ Abington 16:44



race directors shop for premium running gear my profile


 

© 2014 Active Network, LLC and/or its affiliates and licensors. All rights reserved.
About Us | Terms of Use | Copyright Policy | Your Privacy Rights | Support
Cool Running Facebook Facebook | Cool Running Twitter Twitter | Newsletter Subscription | News Feed Subscription
Race Directors | Running Events | Race Results | Running Tips | Pace Calculator | Couch to 5K | Running Forum | Running News